Weather History for Sarasota, FL

Change the Weather History Date:

Sunday, January 30, 2005

  Actual Average Record
Temperature  
Mean Temperature 61 °F 62 °F  
Max Temperature 71 °F 72 °F 85 °F (1975)
Min Temperature 51 °F 52 °F 31 °F (1978)
Degree Days  
Heating Degree Days 4 5  
Month to date heating degree days 159  
Since 1 July heating degree days 314  
Cooling Degree Days 0 2  
Month to date cooling degree days 60  
Year to date cooling degree days 60  
Growing Degree Days 11 (Base 50)    
Moisture  
Dew Point 58 °F    
Average Humidity 85    
Maximum Humidity 100    
Minimum Humidity 66    
Precipitation  
Precipitation 0.00 in 0.05 in 1.27 in (1926)
Month to date precipitation 2.43  
Year to date precipitation 2.43  
Sea Level Pressure  
Sea Level Pressure 30.03 in    
Wind  
Wind Speed 8 mph (WSW)    
Max Wind Speed 13 mph    
Max Gust Speed -    
Visibility 6 miles    
Events Fog , Rain    
T = Trace of Precipitation, MM = Missing Value Source: NWS Daily Summary

Daily Weather History Graph

Daily Weather History Graph

Search for Another Location

Airport:

Trip Planner

Search our weather history database for the weather conditions in past years. The results will help you decide how hot, cold, wet, or windy it might be!

Date:

Astronomy

Jan. 30, 2005 Rise Set
Actual Time 7:17 AM EST 6:10 PM EST
Civil Twilight 6:52 AM EST 6:34 PM EST
Nautical Twilight 6:24 AM EST 7:02 PM EST
Astronomical Twilight 5:57 AM EST 7:30 PM EST
Moon 10:58 PM EST (1/30) 10:19 AM EST (1/30)
Length of Visible Light 11h 41m
Length of Day
10h 52m
Waning Gibbous, 76% of the Moon is Illuminated
Jan 30
Waning Gibbous
Feb 2
Last Quarter
Feb 8
New
Feb 15
First Quarter
Feb 23
Full

Hourly Weather History & Observations

Time (EST) Temp. Dew Point Humidity Pressure Visibility Wind Dir Wind Speed Gust Speed Precip Events Conditions
12:53 AM 61.0 °F 57.0 °F 87% 30.06 in 10.0 mi SE 6.9 mph - N/A   Overcast
1:53 AM 63.0 °F 57.9 °F 84% 30.04 in 10.0 mi SSE 5.8 mph - N/A   Overcast
2:53 AM 64.0 °F 57.0 °F 78% 30.03 in 10.0 mi South 6.9 mph - N/A   Mostly Cloudy
3:53 AM 64.0 °F 57.9 °F 80% 30.01 in 10.0 mi South 10.4 mph - N/A   Overcast
4:53 AM 64.0 °F 57.9 °F 80% 30.01 in 10.0 mi South 8.1 mph - N/A   Overcast
5:53 AM 64.0 °F 57.9 °F 80% 30.01 in 10.0 mi South 11.5 mph - 0.00 in Rain Light Rain
6:53 AM 64.0 °F 57.9 °F 80% 30.03 in 10.0 mi South 6.9 mph - 0.00 in   Overcast
7:53 AM 64.9 °F 59.0 °F 81% 30.04 in 10.0 mi South 9.2 mph - N/A   Overcast
8:53 AM 66.9 °F 60.1 °F 79% 30.04 in 10.0 mi South 10.4 mph - N/A   Mostly Cloudy
9:53 AM 69.1 °F 60.1 °F 73% 30.05 in 10.0 mi South 11.5 mph - N/A   Clear
10:53 AM 71.1 °F 59.0 °F 66% 30.06 in 10.0 mi SSW 10.4 mph - N/A   Partly Cloudy
11:53 AM 71.1 °F 60.1 °F 68% 30.05 in 10.0 mi SSW 10.4 mph - N/A   Overcast
12:53 PM 70.0 °F 60.1 °F 71% 30.03 in 10.0 mi WSW 9.2 mph - N/A   Mostly Cloudy
1:23 PM 66.2 °F 60.8 °F 83% 30.02 in 10.0 mi West 8.1 mph - N/A   Overcast
1:41 PM 66.2 °F 60.8 °F 83% 30.01 in 10.0 mi West 6.9 mph - N/A   Mostly Cloudy
1:53 PM 69.1 °F 61.0 °F 75% 30.01 in 10.0 mi West 8.1 mph - N/A   Mostly Cloudy
2:53 PM 71.1 °F 62.1 °F 73% 29.99 in 10.0 mi West 11.5 mph - N/A   Clear
3:53 PM 69.1 °F 62.1 °F 78% 30.00 in 10.0 mi West 9.2 mph - N/A   Clear
4:12 PM 66.2 °F 62.6 °F 88% 30.00 in 10.0 mi West 11.5 mph - N/A   Scattered Clouds
4:21 PM 66.2 °F 62.6 °F 88% 29.99 in 10.0 mi West 11.5 mph - N/A   Mostly Cloudy
4:28 PM 64.4 °F 60.8 °F 88% 30.00 in 2.5 mi West 12.7 mph - N/A   Mostly Cloudy
4:36 PM 64.4 °F 60.8 °F 88% 30.00 in 1.8 mi West 11.5 mph - N/A   Mostly Cloudy
4:39 PM 64.4 °F 60.8 °F 88% 30.00 in 3.0 mi West 11.5 mph - N/A   Mostly Cloudy
4:53 PM 64.9 °F 62.1 °F 90% 30.00 in 10.0 mi WNW 9.2 mph - N/A   Mostly Cloudy
5:23 PM 62.6 °F 59.0 °F 88% 30.01 in 2.0 mi NW 9.2 mph - N/A   Overcast
5:32 PM 60.8 °F 59.0 °F 94% 30.02 in 5.0 mi WNW 9.2 mph - N/A   Overcast
5:53 PM 60.1 °F 57.9 °F 93% 30.01 in 3.0 mi NW 8.1 mph - N/A   Overcast
6:53 PM 59.0 °F 57.0 °F 93% 30.02 in 2.0 mi NW 5.8 mph - N/A   Overcast
7:03 PM 59.0 °F 57.2 °F 94% 30.03 in 1.0 mi WNW 5.8 mph - N/A   Overcast
7:53 PM 57.9 °F 57.0 °F 97% 30.05 in 0.5 mi NW 5.8 mph - N/A Fog Fog
8:53 PM 57.0 °F 55.9 °F 96% 30.05 in 0.2 mi NNW 3.5 mph - N/A Fog Fog
9:53 PM 55.9 °F 55.9 °F 100% 30.06 in 0.2 mi Calm Calm - N/A Fog Fog
10:53 PM 53.1 °F 52.0 °F 96% 30.06 in 0.5 mi Calm Calm - N/A Fog Fog
11:30 PM 51.8 °F 51.8 °F 100% 30.05 in 0.2 mi Calm Calm - N/A Fog Fog
11:37 PM 51.8 °F 51.8 °F 100% 30.05 in 0.2 mi Calm Calm - N/A Fog Fog
11:53 PM 52.0 °F 51.1 °F 97% 30.05 in 0.2 mi Calm Calm - N/A Fog Fog